User: anonymous   Login
Location: Prague
(50.0830°N, 14.4670°E)
Time: 10:30:31
(UTC+01:00)
Language:

NANOSAT C BR1 - Orbit

View from above orbital plane
View from above orbital plane
View from above satellite
View from above satellite

Ground track
Ground track

The orbit data is extracted from the following two-line orbital elements,

1 40024U 14033Q   21334.58089343  .00001167  00000-0  12468-3 0  9993
2 40024  97.9656 271.0246 0011915 349.8693  10.2282 14.90712153404348
Epoch (UTC): 30 November 2021 13:56:29
Eccentricity: 0.0011915
inclination: 97.9656°
perigee height: 587 km
apogee height: 604 km
right ascension of ascending node: 271.0246°
argument of perigee: 349.8693°
revolutions per day: 14.90712153
mean anomaly at epoch: 10.2282°
orbit number at epoch: 40434

The dashed part of the orbit path shows where the satellite is in the earth's shadow,  

DLR